Weather History for KSJX - February, 2013

Change the Weather History Date:

Wednesday, February 27, 2013

  Actual Average Record
Temperature  
Mean Temperature 30 °F -  
Max Temperature 33 °F 31 °F - (-1)
Min Temperature 28 °F 16 °F - (-1)
Degree Days  
Heating Degree Days 34    
Moisture  
Dew Point 28 °F    
Average Humidity 90    
Maximum Humidity 100    
Minimum Humidity 83    
Precipitation  
Precipitation 0.00 in - - ()
Sea Level Pressure  
Sea Level Pressure 29.72 in    
Wind  
Wind Speed 12 mph (NE)    
Max Wind Speed 16 mph    
Max Gust Speed 26 mph    
Visibility 8 miles    
Events Snow    
Averages and records for this station are not official NWS values.
T = Trace of Precipitation, MM = Missing Value Source: NWS Daily Summary

Daily Weather History Graph

Daily Weather History Graph

Search for Another Location

Airport or City:

Trip Planner

Search our weather history database for the weather conditions in past years. The results will help you decide how hot, cold, wet, or windy it might be!

Date:

Astronomy

Feb. 27, 2013 Rise Set
Actual Time 7:23 AM EST 6:26 PM EST
Civil Twilight 6:54 AM EST 6:56 PM EST
Nautical Twilight 6:19 AM EST 7:30 PM EST
Astronomical Twilight 5:45 AM EST 8:05 PM EST
Moon 8:57 PM EST (2/27) 7:50 AM EST (2/27)
Length of Visible Light 12h 02m
Length of Day
11h 02m
Waning Gibbous, 96% of the Moon is Illuminated
Feb 27
Waning Gibbous
Mar 4
Last Quarter
Mar 11
New
Mar 19
First Quarter
Mar 27
Full

Hourly Weather History & Observations

Time (EST) Temp. Windchill Dew Point Humidity Pressure Visibility Wind Dir Wind Speed Gust Speed Precip Events Conditions
12:16 AM 28.9 °F 19.2 °F 24.8 °F 84% 29.80 in 10.0 mi NE 11.5 mph 21.9 mph N/A   Clear
12:36 AM 28.9 °F 18.6 °F 25.0 °F 85% 29.79 in 10.0 mi NE 12.7 mph 19.6 mph N/A   Clear
12:56 AM 28.9 °F 18.6 °F 25.2 °F 86% 29.78 in 10.0 mi NE 12.7 mph 21.9 mph N/A   Clear
1:16 AM 29.1 °F 20.0 °F 25.2 °F 85% 29.77 in 10.0 mi NE 10.4 mph 17.3 mph N/A   Clear
1:36 AM 29.1 °F 18.9 °F 25.2 °F 85% 29.77 in 10.0 mi NE 12.7 mph 19.6 mph N/A   Clear
1:56 AM 29.3 °F 18.6 °F 25.3 °F 85% 29.76 in 10.0 mi NE 13.8 mph 19.6 mph N/A   Scattered Clouds
2:16 AM 29.3 °F 19.1 °F 25.3 °F 85% 29.75 in 10.0 mi NE 12.7 mph 26.5 mph N/A   Overcast
2:35 AM 29.3 °F 19.1 °F 25.2 °F 85% 29.75 in 10.0 mi NE 12.7 mph 21.9 mph N/A   Overcast
2:56 AM 29.3 °F 18.6 °F 25.3 °F 85% 29.74 in 10.0 mi NE 13.8 mph 20.7 mph N/A   Overcast
3:16 AM 29.7 °F 18.6 °F 25.5 °F 85% 29.73 in 10.0 mi NE 15.0 mph 18.4 mph N/A   Overcast
3:35 AM 30.0 °F 20.0 °F 25.5 °F 83% 29.72 in 10.0 mi NE 12.7 mph 23.0 mph N/A   Overcast
3:56 AM 29.8 °F 18.9 °F 25.5 °F 84% 29.71 in 10.0 mi NE 15.0 mph 21.9 mph N/A   Overcast
4:16 AM 29.8 °F 19.3 °F 25.7 °F 85% 29.71 in 10.0 mi NE 13.8 mph 21.9 mph N/A   Overcast
4:35 AM 29.8 °F 18.9 °F 25.7 °F 85% 29.71 in 10.0 mi NE 15.0 mph 21.9 mph N/A   Overcast
4:56 AM 30.0 °F 19.5 °F 26.1 °F 85% 29.71 in 10.0 mi NE 13.8 mph 23.0 mph N/A   Overcast
5:16 AM 29.8 °F 19.8 °F 26.1 °F 86% 29.71 in 10.0 mi NE 12.7 mph 24.2 mph N/A   Overcast
5:35 AM 29.3 °F 19.6 °F 26.2 °F 88% 29.71 in 7.0 mi NE 11.5 mph 23.0 mph N/A Snow Light Snow
5:56 AM 28.9 °F 19.8 °F 26.8 °F 92% 29.71 in 1.2 mi NE 10.4 mph 20.7 mph N/A Snow Light Snow
6:16 AM 28.9 °F 17.7 °F 27.5 °F 94% 29.71 in 2.0 mi NNE 15.0 mph 19.6 mph N/A Snow Light Snow
6:36 AM 28.9 °F 19.8 °F 27.5 °F 94% 29.71 in 4.0 mi NNE 10.4 mph 17.3 mph N/A Snow Light Snow
6:56 AM 29.1 °F 20.0 °F 27.5 °F 94% 29.71 in 7.0 mi NNE 10.4 mph 18.4 mph N/A   Overcast
7:16 AM 29.3 °F 18.2 °F 27.9 °F 94% 29.71 in 7.0 mi NE 15.0 mph 21.9 mph N/A   Overcast
7:36 AM 29.3 °F 19.6 °F 27.9 °F 94% 29.71 in 7.0 mi NNE 11.5 mph 24.2 mph N/A   Overcast
7:56 AM 29.3 °F 19.1 °F 27.5 °F 93% 29.71 in 5.0 mi NE 12.7 mph 23.0 mph N/A   Overcast
8:15 AM 29.3 °F 18.6 °F 27.5 °F 93% 29.71 in 4.0 mi NNE 13.8 mph 21.9 mph N/A   Overcast
8:36 AM 29.3 °F 19.6 °F 27.9 °F 94% 29.72 in 7.0 mi NNE 11.5 mph 19.6 mph N/A   Overcast
8:56 AM 29.7 °F 20.1 °F 28.2 °F 94% 29.72 in 5.0 mi NE 11.5 mph 20.7 mph N/A   Overcast
9:16 AM 29.8 °F 18.9 °F 28.4 °F 94% 29.72 in 7.0 mi NNE 15.0 mph 20.7 mph N/A   Overcast
9:36 AM 30.2 °F 20.8 °F 28.4 °F 93% 29.72 in 7.0 mi NNE 11.5 mph 19.6 mph N/A   Overcast
10:16 AM 30.7 °F 20.0 °F 28.9 °F 93% 29.71 in 7.0 mi NE 15.0 mph 20.7 mph N/A   Overcast
10:36 AM 30.7 °F 20.9 °F 28.8 °F 92% 29.70 in 10.0 mi NNE 12.7 mph 19.6 mph N/A   Overcast
10:55 AM 31.1 °F 20.1 °F 28.8 °F 91% 29.70 in 10.0 mi NNE 16.1 mph 20.7 mph N/A   Overcast
11:16 AM 31.1 °F 21.4 °F 28.8 °F 91% 29.70 in 7.0 mi NE 12.7 mph 19.6 mph N/A   Overcast
11:35 AM 31.1 °F 21.4 °F 28.9 °F 92% 29.70 in 10.0 mi NE 12.7 mph 17.3 mph N/A   Overcast
11:56 AM 31.6 °F 22.6 °F 28.9 °F 90% 29.70 in 10.0 mi NNE 11.5 mph 18.4 mph N/A   Overcast
12:16 PM 32.0 °F 24.2 °F 29.1 °F 89% 29.70 in 10.0 mi NE 9.2 mph 18.4 mph N/A   Overcast
12:35 PM 32.0 °F 23.0 °F 29.3 °F 90% 29.69 in 10.0 mi NE 11.5 mph 17.3 mph N/A   Overcast
12:56 PM 32.4 °F 24.0 °F 29.3 °F 88% 29.69 in 10.0 mi NE 10.4 mph 16.1 mph N/A   Overcast
1:16 PM 32.5 °F 24.2 °F 29.8 °F 90% 29.69 in 10.0 mi NE 10.4 mph - N/A   Overcast
1:35 PM 32.9 °F 25.3 °F 29.8 °F 88% 29.69 in 10.0 mi NE 9.2 mph 16.1 mph N/A   Overcast
1:56 PM 32.9 °F 24.7 °F 29.8 °F 88% 29.69 in 10.0 mi NE 10.4 mph - N/A   Overcast
2:16 PM 32.9 °F 24.7 °F 30.2 °F 90% 29.68 in 10.0 mi NE 10.4 mph - N/A   Overcast
2:35 PM 32.9 °F 25.3 °F 30.6 °F 91% 29.68 in 10.0 mi NE 9.2 mph 16.1 mph N/A   Overcast
2:48 PM 32.9 °F 25.3 °F 30.6 °F 91% 29.69 in 10.0 mi NE 9.2 mph - N/A   Overcast
3:37 PM - - - N/A% - 10.0 mi NE 6.9 mph - N/A   Scattered Clouds
3:58 PM - - - N/A% - - NE 10.4 mph - N/A   Unknown
4:17 PM 32.0 °F 23.6 °F - N/A% - 3.0 mi NE 10.4 mph - N/A Snow Light Snow
4:37 PM 33.8 °F 27.0 °F 30.2 °F 87% - 7.0 mi NNE 8.1 mph - N/A Snow Light Snow
4:58 PM 33.8 °F 25.3 °F 30.2 °F 87% 29.70 in 7.0 mi NE 11.5 mph 18.4 mph N/A   Overcast
5:17 PM 33.8 °F 27.7 °F 32.0 °F 93% - 7.0 mi NNE 6.9 mph - N/A   Overcast
5:37 PM - - - N/A% - 7.0 mi NNE 8.1 mph - N/A   Unknown
5:58 PM - - - N/A% - 7.0 mi NNE 11.5 mph 16.1 mph N/A   Overcast
6:22 PM - - - N/A% - 5.0 mi NNE 6.9 mph - N/A   Unknown
6:38 PM - - - N/A% - - NNE 9.2 mph - N/A   Unknown
6:57 PM - - - N/A% - 5.0 mi NNE 9.2 mph - N/A   Mist
7:18 PM 32.0 °F 23.6 °F 32.0 °F 100% 29.73 in 5.0 mi NNE 10.4 mph 16.1 mph N/A   Overcast
7:38 PM 32.0 °F 24.8 °F 32.0 °F 100% 29.73 in 3.0 mi NNE 8.1 mph - N/A Snow Light Snow
7:57 PM 32.0 °F 24.8 °F 32.0 °F 100% 29.73 in 3.0 mi NNE 8.1 mph - N/A   Overcast
8:18 PM 32.0 °F 23.6 °F 32.0 °F 100% 29.73 in 2.5 mi North 10.4 mph 16.1 mph N/A Snow Light Snow
8:37 PM 32.0 °F 23.6 °F 32.0 °F 100% 29.74 in 4.0 mi NNE 10.4 mph - N/A Snow Light Snow
9:19 PM - - - N/A% - 5.0 mi North 8.1 mph - N/A   Unknown
9:38 PM - - - N/A% - 7.0 mi NNE 10.4 mph - N/A   Overcast
9:57 PM - - - N/A% - 10.0 mi North 8.1 mph - N/A   Unknown
10:17 PM - - - N/A% - 10.0 mi North 9.2 mph - N/A   Overcast
10:37 PM 32.0 °F 25.6 °F 30.2 °F 93% - 10.0 mi North 6.9 mph - N/A   Overcast
11:38 PM 32.0 °F 23.0 °F 30.2 °F 93% 29.74 in 10.0 mi North 11.5 mph 18.4 mph N/A   Overcast